Location: Unspecified
(0.0000°N, 0.0000°E)
Time: 12:09:20
(UTC+00:00)

Vanguard 1 Rocket - Pass Details

Date: 24 November 2019
Orbit: 650 x 4226 km, 34.3° (Epoch: 10 December)

Event Time Altitude Azimuth Distance (km) Brightness Sun altitude
Rises 18:02:41 0° 226° (SW) 8,450 13.8 -3.7°
Reaches altitude 10° 18:10:13 10° 216° (SW) 7,414 13.0 -5.5°
Maximum altitude 18:31:13 32° 160° (SSE) 4,828 11.1 -10.4°
Drops below altitude 10° 18:45:12 10° 102° (ESE) 5,095 10.7 -13.7°
Enters shadow 18:46:01 - 99° (E) 5,197 10.7 -13.9°
Sets 18:49:00 0° 91° (E) 5,643 - -14.6°
